Location: Heppenheim
(49.6410°N, 8.6370°E)
Time: 17:56:21
(UTC+02:00)

ISS - Pass Details

Date: 16 May 2026
Orbit: 414 x 424 km, 51.6° (Epoch: 10 May)

Event Time Altitude Azimuth Distance (km) Brightness Sun altitude
Rises 00:57:54 0° 288° (WNW) 2,356 0.4 -21.1°
Reaches altitude 10° 01:00:04 10° 281° (W) 1,492 -0.8 -21.1°
Enters shadow 01:01:08 18° 272° (W) 1,096 -1.6 -21.2°
